Time,TemperatureF,DewpointF,PressureIn,WindDirection,WindDirectionDegrees,WindSpeedMPH,WindSpeedGustMPH,Humidity,HourlyPrecipIn,Conditions,Clouds,dailyrainin,SolarRadiationWatts/m^2,SoftwareType,DateUTC
2013-06-24 00:03:00,56.0,23.0,-100.00,West,267,0.0,0.0,28,0.00,,,0.00,0.000000,,2013-06-24 07:03:00,
2013-06-24 00:49:00,55.0,23.0,-100.00,West,281,4.0,7.0,29,0.00,,,0.00,0.000000,,2013-06-24 07:49:00,
2013-06-24 01:03:00,55.0,23.0,-100.00,West,281,4.0,7.0,29,0.00,,,0.00,0.000000,,2013-06-24 08:03:00,
2013-06-24 01:47:00,56.0,19.0,-100.00,SW,223,2.0,5.0,23,0.00,,,0.00,0.000000,,2013-06-24 08:47:00,
2013-06-24 01:55:00,56.0,19.0,-100.00,SW,223,2.0,5.0,23,0.00,,,0.00,0.000000,,2013-06-24 08:55:00,
2013-06-24 02:03:00,56.0,19.0,-100.00,SW,223,2.0,5.0,23,0.00,,,0.00,0.000000,,2013-06-24 09:03:00,
2013-06-24 02:58:00,56.0,20.0,-100.00,SW,236,0.0,3.0,24,0.00,,,0.00,0.000000,,2013-06-24 09:58:00,
2013-06-24 03:12:00,52.0,21.0,-100.00,North,7,1.0,6.0,29,0.00,,,0.00,0.000000,,2013-06-24 10:12:00,
2013-06-24 03:51:00,52.0,21.0,-100.00,North,7,1.0,6.0,29,0.00,,,0.00,0.000000,,2013-06-24 10:51:00,
2013-06-24 04:02:00,52.0,21.0,-100.00,North,7,1.0,6.0,29,0.00,,,0.00,0.000000,,2013-06-24 11:02:00,
2013-06-24 04:12:00,50.0,21.0,-100.00,WSW,240,2.0,5.0,32,0.00,,,0.00,0.000000,,2013-06-24 11:12:00,
2013-06-24 04:49:00,50.0,21.0,-100.00,WSW,240,2.0,5.0,32,0.00,,,0.00,0.000000,,2013-06-24 11:49:00,
2013-06-24 04:56:00,50.0,21.0,-100.00,WSW,240,2.0,5.0,32,0.00,,,0.00,0.000000,,2013-06-24 11:56:00,
2013-06-24 05:03:00,50.0,21.0,-100.00,WSW,240,2.0,5.0,32,0.00,,,0.00,0.000000,,2013-06-24 12:03:00,
2013-06-24 05:12:00,48.0,23.0,-100.00,West,273,2.0,4.0,37,0.00,,,0.00,0.000000,,2013-06-24 12:12:00,
2013-06-24 05:49:00,48.0,23.0,-100.00,West,273,2.0,4.0,37,0.00,,,0.00,0.000000,,2013-06-24 12:49:00,
2013-06-24 05:55:00,48.0,23.0,-100.00,West,273,2.0,4.0,37,0.00,,,0.00,0.000000,,2013-06-24 12:55:00,
2013-06-24 06:03:00,48.0,23.0,-100.00,West,273,2.0,4.0,37,0.00,,,0.00,0.000000,,2013-06-24 13:03:00,
2013-06-24 06:12:00,53.0,27.0,-100.00,NW,308,0.0,3.0,36,0.00,,,0.00,96.000000,,2013-06-24 13:12:00,
2013-06-24 06:46:00,53.0,27.0,-100.00,NW,308,0.0,3.0,36,0.00,,,0.00,96.000000,,2013-06-24 13:46:00,
2013-06-24 06:57:00,53.0,27.0,-100.00,NW,308,0.0,3.0,36,0.00,,,0.00,96.000000,,2013-06-24 13:57:00,
2013-06-24 07:12:00,58.0,25.0,-100.00,SE,136,0.0,2.0,28,0.00,,,0.00,313.000000,,2013-06-24 14:12:00,
2013-06-24 07:45:00,58.0,25.0,-100.00,SE,136,0.0,2.0,28,0.00,,,0.00,313.000000,,2013-06-24 14:45:00,
2013-06-24 08:03:00,58.0,25.0,-100.00,SE,136,0.0,2.0,28,0.00,,,0.00,313.000000,,2013-06-24 15:03:00,
2013-06-24 08:47:00,58.0,24.0,-100.00,SE,131,0.0,3.0,27,0.00,,,0.00,375.000000,,2013-06-24 15:47:00,
2013-06-24 08:56:00,58.0,24.0,-100.00,SE,131,0.0,3.0,27,0.00,,,0.00,375.000000,,2013-06-24 15:56:00,
2013-06-24 09:02:00,58.0,24.0,-100.00,SE,131,0.0,3.0,27,0.00,,,0.00,375.000000,,2013-06-24 16:02:00,
2013-06-24 09:11:00,58.0,24.0,-100.00,SE,131,0.0,3.0,27,0.00,,,0.00,375.000000,,2013-06-24 16:11:00,
2013-06-24 09:12:00,58.0,25.0,-100.00,SE,145,1.0,4.0,28,0.00,,,0.00,373.000000,,2013-06-24 16:12:00,
2013-06-24 09:45:00,58.0,25.0,-100.00,SE,145,1.0,4.0,28,0.00,,,0.00,373.000000,,2013-06-24 16:45:00,
2013-06-24 09:55:00,58.0,25.0,-100.00,SE,145,1.0,4.0,28,0.00,,,0.00,373.000000,,2013-06-24 16:55:00,
2013-06-24 10:02:00,58.0,25.0,-100.00,SE,145,1.0,4.0,28,0.00,,,0.00,373.000000,,2013-06-24 17:02:00,
2013-06-24 10:12:00,59.0,24.0,-100.00,South,176,0.0,5.0,26,0.00,,,0.00,415.000000,,2013-06-24 17:12:00,
2013-06-24 10:47:00,59.0,24.0,-100.00,South,176,0.0,5.0,26,0.00,,,0.00,415.000000,,2013-06-24 17:47:00,
2013-06-24 10:57:00,59.0,24.0,-100.00,South,176,0.0,5.0,26,0.00,,,0.00,415.000000,,2013-06-24 17:57:00,
2013-06-24 11:02:00,59.0,24.0,-100.00,South,176,0.0,5.0,26,0.00,,,0.00,415.000000,,2013-06-24 18:02:00,
2013-06-24 11:12:00,59.0,24.0,-100.00,SSW,209,0.0,0.0,26,0.00,,,0.00,435.000000,,2013-06-24 18:12:00,
2013-06-24 11:37:00,59.0,24.0,-100.00,SSW,209,0.0,0.0,26,0.00,,,0.00,435.000000,,2013-06-24 18:37:00,
2013-06-24 11:48:00,59.0,24.0,-100.00,SSW,209,0.0,0.0,26,0.00,,,0.00,435.000000,,2013-06-24 18:48:00,
2013-06-24 11:55:00,59.0,24.0,-100.00,SSW,209,0.0,0.0,26,0.00,,,0.00,435.000000,,2013-06-24 18:55:00,
2013-06-24 12:03:00,59.0,24.0,-100.00,SSW,209,0.0,0.0,26,0.00,,,0.00,435.000000,,2013-06-24 19:03:00,
2013-06-24 12:46:00,57.0,27.0,-100.00,SSE,154,1.0,7.0,32,0.00,,,0.00,282.000000,,2013-06-24 19:46:00,
2013-06-24 12:55:00,57.0,27.0,-100.00,SSE,154,1.0,7.0,32,0.00,,,0.00,282.000000,,2013-06-24 19:55:00,
2013-06-24 13:02:00,57.0,27.0,-100.00,SSE,154,1.0,7.0,32,0.00,,,0.00,282.000000,,2013-06-24 20:02:00,
2013-06-24 13:11:00,57.0,27.0,-100.00,SSE,154,1.0,7.0,32,0.00,,,0.00,282.000000,,2013-06-24 20:11:00,
2013-06-24 13:12:00,58.0,26.0,-100.00,SSW,210,0.0,7.0,29,0.00,,,0.00,420.000000,,2013-06-24 20:12:00,
2013-06-24 13:47:00,58.0,26.0,-100.00,SSW,210,0.0,7.0,29,0.00,,,0.00,420.000000,,2013-06-24 20:47:00,
2013-06-24 13:55:00,58.0,26.0,-100.00,SSW,210,0.0,7.0,29,0.00,,,0.00,420.000000,,2013-06-24 20:55:00,
2013-06-24 14:02:00,58.0,26.0,-100.00,SSW,210,0.0,7.0,29,0.00,,,0.00,420.000000,,2013-06-24 21:02:00,
2013-06-24 14:54:00,62.0,28.0,-100.00,South,189,0.0,5.0,27,0.00,,,0.00,479.000000,,2013-06-24 21:54:00,
2013-06-24 15:03:00,62.0,28.0,-100.00,South,189,0.0,5.0,27,0.00,,,0.00,479.000000,,2013-06-24 22:03:00,
2013-06-24 15:49:00,56.0,29.0,-100.00,SSW,213,1.0,9.0,35,0.00,,,0.00,292.000000,,2013-06-24 22:49:00,
2013-06-24 15:55:00,56.0,29.0,-100.00,SSW,213,1.0,9.0,35,0.00,,,0.00,292.000000,,2013-06-24 22:55:00,
2013-06-24 16:02:00,56.0,29.0,-100.00,SSW,213,1.0,9.0,35,0.00,,,0.00,292.000000,,2013-06-24 23:02:00,
2013-06-24 16:11:00,56.0,29.0,-100.00,SSW,213,1.0,9.0,35,0.00,,,0.00,292.000000,,2013-06-24 23:11:00,
2013-06-24 16:45:00,57.0,29.0,-100.00,SSW,197,1.0,8.0,34,0.00,,,0.00,417.000000,,2013-06-24 23:45:00,
2013-06-24 16:54:00,57.0,29.0,-100.00,SSW,197,1.0,8.0,34,0.00,,,0.00,417.000000,,2013-06-24 23:54:00,
2013-06-24 17:02:00,57.0,29.0,-100.00,SSW,197,1.0,8.0,34,0.00,,,0.00,417.000000,,2013-06-25 00:02:00,
2013-06-24 17:11:00,57.0,29.0,-100.00,SSW,197,1.0,8.0,34,0.00,,,0.00,417.000000,,2013-06-25 00:11:00,
2013-06-24 18:46:00,47.0,39.0,-100.00,West,274,4.0,8.0,74,-99.99,,,0.00,53.000000,,2013-06-25 01:46:00,
2013-06-24 18:55:00,47.0,39.0,-100.00,West,274,4.0,8.0,74,-99.99,,,0.00,53.000000,,2013-06-25 01:55:00,
2013-06-24 19:02:00,47.0,39.0,-100.00,West,274,4.0,8.0,74,-99.99,,,0.00,53.000000,,2013-06-25 02:02:00,
2013-06-24 19:11:00,47.0,39.0,-100.00,West,274,4.0,8.0,74,-99.99,,,0.00,53.000000,,2013-06-25 02:11:00,
2013-06-24 19:12:00,46.0,40.0,-100.00,WSW,249,3.0,8.0,79,0.00,,,0.00,0.000000,,2013-06-25 02:12:00,
2013-06-24 19:56:00,46.0,40.0,-100.00,WSW,249,3.0,8.0,79,0.00,,,0.00,0.000000,,2013-06-25 02:56:00,
2013-06-24 20:03:00,46.0,40.0,-100.00,WSW,249,3.0,8.0,79,0.00,,,0.00,0.000000,,2013-06-25 03:03:00,
2013-06-24 21:01:00,47.0,40.0,-100.00,WSW,243,3.0,6.0,77,0.00,,,0.00,0.000000,,2013-06-25 04:01:00,
2013-06-24 21:11:00,47.0,40.0,-100.00,WSW,243,3.0,6.0,77,0.00,,,0.00,0.000000,,2013-06-25 04:11:00,
2013-06-24 21:43:00,47.0,35.0,-100.00,WSW,256,0.0,3.0,62,0.00,,,0.00,0.000000,,2013-06-25 04:43:00,
2013-06-24 21:52:00,47.0,35.0,-100.00,WSW,256,0.0,3.0,62,0.00,,,0.00,0.000000,,2013-06-25 04:52:00,
2013-06-24 22:01:00,47.0,35.0,-100.00,WSW,256,0.0,3.0,62,0.00,,,0.00,0.000000,,2013-06-25 05:01:00,
2013-06-24 22:11:00,47.0,35.0,-100.00,WSW,256,0.0,3.0,62,0.00,,,0.00,0.000000,,2013-06-25 05:11:00,
2013-06-24 22:44:00,50.0,34.0,-100.00,WSW,246,3.0,5.0,54,0.00,,,0.00,0.000000,,2013-06-25 05:44:00,
2013-06-24 22:52:00,50.0,34.0,-100.00,WSW,246,3.0,5.0,54,0.00,,,0.00,0.000000,,2013-06-25 05:52:00,
2013-06-24 23:01:00,50.0,34.0,-100.00,WSW,246,3.0,5.0,54,0.00,,,0.00,0.000000,,2013-06-25 06:01:00,
2013-06-24 23:11:00,50.0,34.0,-100.00,WSW,246,3.0,5.0,54,0.00,,,0.00,0.000000,,2013-06-25 06:11:00,
2013-06-24 23:43:00,49.0,33.0,-100.00,West,277,1.0,4.0,53,0.00,,,0.00,0.000000,,2013-06-25 06:43:00,
2013-06-24 23:52:00,49.0,33.0,-100.00,West,277,1.0,4.0,53,0.00,,,0.00,0.000000,,2013-06-25 06:52:00,